ZHONGXING-2A

Last updated on Thu Oct 30 2025 00:02:49 GMT+0000 (Coordinated Universal Time)

1 38352U 12028A 25302.49057781 -.00000283 00000+0 00000+0 0 9999 2 38352 0.8523 87.1013 0001208 132.5532 93.3155 1.00273529 48987
UTC large
Height (km)
Speed (km/s)
/
Latitude / Longitude
Inclination (degrees)
Orbital Period (minutes)
Azimuth
Elevation
Range (km)
Doppler Factor

Next 0 passes for location: London (51.5072 / 0.1276)

Sorry there are no passes over London.